"2009-05-25 00:00:00",916153,4.919,271.4,8.29,1.321,17.44,105.2138,12.62,13.94,65.36,0,110.2,13.36,13.42,233.4
"2009-05-25 00:00:30",916154,5.168,273.8,8.34,1.384,17.07,105.2133,12.62,13.95,65.3,0,110.2,13.36,13.41,235.8
"2009-05-25 00:01:00",916155,4.525,275.3,7.136,1.234,15.98,105.2133,12.62,13.95,65.37,0,110.2,13.36,13.41,237.3
"2009-05-25 00:01:30",916156,4.515,264.6,4.562,1.395,14.99,105.2136,12.62,13.9,65.01,0,110.2,13.35,13.42,226.6
"2009-05-25 00:02:00",916157,3.584,263.2,2.697,0.165,12.24,105.2136,12.62,13.71,64.96,0,110.2,13.39,13.42,225.2
"2009-05-25 00:02:30",916158,3.631,260.9,1.754,0.202,12.28,105.2145,12.62,13.69,65.05,0,110.2,13.39,13.42,222.9
"2009-05-25 00:03:00",916159,3.477,257.1,1.679,0.115,12.53,105.2139,12.62,13.7,65.02,0,110.2,13.39,13.42,219.1
"2009-05-25 00:03:30",916160,3.12,256.6,3.02,0.161,13.09,105.2142,12.62,13.7,64.8,0,110.2,13.39,13.42,218.6
"2009-05-25 00:04:00",916161,3.354,260.9,2.752,0.213,13.55,105.2136,12.62,13.69,64.62,0,110.2,13.4,13.42,222.9
"2009-05-25 00:04:30",916162,3.136,260.2,2.581,0.185,13.78,105.2142,12.62,13.67,64.47,0,110.2,13.4,13.42,222.2
"2009-05-25 00:05:00",916163,4.411,270.3,7.207,1.339,17.84,105.2145,12.62,13.86,64.5,0,110.2,13.37,13.42,232.3
"2009-05-25 00:05:30",916164,3.702,258.2,6.958,1.279,17.3,105.2148,12.62,13.9,64.54,0,110.2,13.37,13.42,220.2
"2009-05-25 00:06:00",916165,3.096,259.6,6.185,1.218,15.91,105.2162,12.63,13.87,64.41,0,110.2,13.37,13.42,221.6
"2009-05-25 00:06:30",916166,3.144,260.9,6.772,1.351,15.5,105.2165,12.63,13.78,64.05,0,110.2,13.37,13.42,222.9
"2009-05-25 00:07:00",916167,2.071,247.6,6.198,0.133,13.23,105.2156,12.62,13.67,63.7,0,110.2,13.4,13.42,209.6
"2009-05-25 00:07:30",916168,2.048,248.3,2.411,0.151,13.19,105.2156,12.62,13.66,63.5,0,110.2,13.4,13.42,210.3
"2009-05-25 00:08:00",916169,3.32,248.9,9.15,1.34,15.62,105.2159,12.63,13.85,63.69,0,110.2,13.37,13.42,210.9
"2009-05-25 00:08:30",916170,2.634,241.8,4.503,0.476,13.17,105.2153,12.62,13.68,63.57,0,110.2,13.37,13.42,203.8
"2009-05-25 00:09:00",916171,2.202,240.3,3.42,0.087,13.02,105.2145,12.62,13.69,63.64,0,110.2,13.41,13.42,202.3
"2009-05-25 00:09:30",916172,2.196,237.1,2.441,0.14,13.04,105.2156,12.62,13.69,63.63,0,110.2,13.41,13.42,199.1
"2009-05-25 00:10:00",916173,3.005,242.5,4.153,0.27,13.22,105.2261,12.65,13.7,63.56,0,110.2,13.41,13.45,204.5
"2009-05-25 00:10:30",916174,3.383,245,1.455,0.176,13.8,105.2424,12.69,13.71,63.34,0,110.2,13.41,13.49,207.0
"2009-05-25 00:11:00",916175,3.519,239.5,2.875,0.19,14.03,105.2492,12.71,13.71,63.32,0,110.2,13.41,13.51,201.5
"2009-05-25 00:11:30",916176,3.458,239.8,1.067,0.085,14.26,105.2495,12.71,13.8,63.4,0,110.2,13.41,13.51,201.8
"2009-05-25 00:12:00",916177,5.407,244.4,8.89,1.226,18.1,105.2498,12.71,13.92,63.51,0,110.2,13.37,13.51,206.4
"2009-05-25 00:12:30",916178,4.51,238.3,7.832,1.279,16.52,105.2486,12.71,13.91,63.52,0,110.3,13.37,13.51,200.3
"2009-05-25 00:13:00",916179,3.229,231,1.653,0.156,13.7,105.2576,12.73,13.77,63.32,0,110.2,13.41,13.53,193.0
"2009-05-25 00:13:30",916180,2.831,230.5,2.656,0.217,13.45,105.2788,12.79,13.78,63.22,0,110.2,13.41,13.58,192.5
"2009-05-25 00:14:00",916181,2.656,230.2,3.141,0.104,13.38,105.2825,12.8,13.79,63.04,0,110.2,13.41,13.59,192.2
"2009-05-25 00:14:30",916182,2.58,228.3,1.464,0.062,13.69,105.2813,12.79,13.81,62.89,0,110.2,13.41,13.59,190.3
"2009-05-25 00:15:00",916183,3.252,235.4,6.687,1.225,15.16,105.286,12.8,13.98,63.08,0,110.2,13.37,13.60,197.4
"2009-05-25 00:15:30",916184,3.024,237.5,4.903,0.833,14.41,105.3097,12.87,13.96,63.17,0,110.2,13.37,13.66,199.5
"2009-05-25 00:16:00",916185,2.744,235.7,4.208,0.704,14.15,105.3148,12.88,13.88,63.1,0,110.2,13.37,13.68,197.7
"2009-05-25 00:16:30",916186,2.697,234.4,2.573,0.11,13.75,105.3148,12.88,13.88,63.09,0,110.2,13.4,13.68,196.4
"2009-05-25 00:17:00",916187,2.721,238.3,1.65,0.077,13.92,105.3154,12.88,13.9,62.99,0,110.2,13.4,13.68,200.3
"2009-05-25 00:17:30",916188,4.011,245.5,6.855,1.332,16.45,105.3363,12.93,14.1,62.98,0,110.3,13.36,13.73,207.5
"2009-05-25 00:18:00",916189,2.605,235,1.446,0.071,14.05,105.3481,12.96,13.93,62.63,0,110.3,13.4,13.76,197.0
"2009-05-25 00:18:30",916190,2.527,233.5,0.898,0.093,13.9,105.3487,12.96,13.95,62.39,0,110.3,13.39,13.76,195.5
"2009-05-25 00:19:00",916191,2.425,235.7,2.078,0.073,13.84,105.3487,12.96,13.97,62.2,0,110.3,13.39,13.76,197.7
"2009-05-25 00:19:30",916192,2.269,236.3,1.968,0.069,13.91,105.3633,13,13.99,61.96,0,110.3,13.39,13.80,198.3
"2009-05-25 00:20:00",916193,2.286,234.1,1.592,0.074,14.01,105.3808,13.05,14,61.98,0,110.3,13.4,13.84,196.1
"2009-05-25 00:20:30",916194,2.119,236.1,2.783,0.029,14.24,105.3825,13.05,14.02,62.04,0,110.3,13.4,13.85,198.1
"2009-05-25 00:21:00",916195,2.388,232.7,3.515,0.727,14.67,105.3825,13.05,14.04,62.05,0,110.3,13.37,13.85,194.7
"2009-05-25 00:21:30",916196,4.419,240.4,6.722,1.223,17.66,105.3952,13.08,14.23,62.21,0,110.3,13.37,13.88,202.4
"2009-05-25 00:22:00",916197,3.327,237.1,7.124,1.258,16.1,105.4141,13.13,14.27,62.19,0,110.3,13.37,13.93,199.1
"2009-05-25 00:22:30",916198,2.58,233.8,1.865,0.089,13.72,105.4164,13.14,14.13,61.93,0,110.3,13.41,13.94,195.8
"2009-05-25 00:23:00",916199,2.606,234.7,2.217,0.064,13.36,105.4164,13.14,14.12,61.8,0,110.3,13.4,13.94,196.7
"2009-05-25 00:23:30",916200,2.826,233.9,1.329,0.093,13.39,105.4226,13.15,14.12,61.65,0,110.3,13.4,13.95,195.9
"2009-05-25 00:24:00",916201,2.982,234,1.429,0.064,13.57,105.446,13.21,14.16,61.47,0,110.3,13.4,14.01,196.0
"2009-05-25 00:24:30",916202,3.008,234.4,1.152,0.047,13.77,105.4502,13.22,14.19,61.21,0,110.3,13.41,14.02,196.4
"2009-05-25 00:25:00",916203,2.95,233.8,1.246,0.065,13.99,105.4508,13.23,14.2,61.02,0,110.3,13.41,14.02,195.8
"2009-05-25 00:25:30",916204,2.873,233,1.368,0.043,14.32,105.4686,13.27,14.21,60.83,0,110.3,13.41,14.07,195.0
"2009-05-25 00:26:00",916205,2.986,228.5,2.008,0.137,14.46,105.4818,13.31,14.23,60.69,0,110.3,13.41,14.10,190.5
"2009-05-25 00:26:30",916206,3.462,224.1,1.175,0.16,14.54,105.4841,13.31,14.26,60.6,0,110.3,13.41,14.11,186.1
"2009-05-25 00:27:00",916207,3.889,223.5,0.613,0.062,14.44,105.4846,13.31,14.27,60.82,0,110.3,13.41,14.11,185.5
"2009-05-25 00:27:30",916208,3.747,223.7,0.535,0.04,14.67,105.5067,13.37,14.3,61.23,0,110.3,13.41,14.17,185.7
"2009-05-25 00:28:00",916209,3.746,222.6,1.239,0.079,14.69,105.5179,13.4,14.33,61.4,0,110.3,13.41,14.20,184.6
"2009-05-25 00:28:30",916210,3.885,223.5,0.833,0.075,14.78,105.5179,13.4,14.35,61.38,0,110.3,13.41,14.20,185.5
"2009-05-25 00:29:00",916211,3.974,224.9,0.49,0.064,14.91,105.534,13.44,14.38,61.24,0,110.3,13.41,14.24,186.9
"2009-05-25 00:29:30",916212,4.132,225.2,0.323,0.032,14.89,105.5501,13.48,14.4,61.12,0,110.3,13.41,14.28,187.2
"2009-05-25 00:30:00",916213,4.174,225.4,0.488,0.028,14.98,105.5518,13.48,14.43,61,0,110.3,13.41,14.28,187.4
"2009-05-25 00:30:30",916214,4.138,225.2,0.265,0.028,15.14,105.5617,13.51,14.45,60.86,0,110.3,13.41,14.31,187.2
"2009-05-25 00:31:00",916215,4.186,225.8,0.522,0.038,15.07,105.5825,13.56,14.48,60.67,0,110.3,13.4,14.36,187.8
"2009-05-25 00:31:30",916216,4.348,225.6,0.562,0.097,15.11,105.5856,13.57,14.48,60.43,0,110.3,13.4,14.37,187.6
"2009-05-25 00:32:00",916217,4.431,224,0.556,0.059,15.05,105.5997,13.61,14.52,60.12,0,110.3,13.39,14.41,186.0
"2009-05-25 00:32:30",916218,4.263,224.9,0.689,0.059,15.29,105.6175,13.65,14.55,59.77,0,110.3,13.39,14.45,186.9
"2009-05-25 00:33:00",916219,4.342,223.8,0.78,0.065,15.18,105.618,13.65,14.57,59.36,0,110.3,13.39,14.45,185.8
"2009-05-25 00:33:30",916220,4.39,223.1,0.741,0.054,15.13,105.6403,13.71,14.6,59.07,0,110.3,13.39,14.51,185.1
"2009-05-25 00:34:00",916221,4.341,223.1,1.009,0.08,15.19,105.6492,13.73,14.63,58.95,0,110.3,13.39,14.53,185.1
"2009-05-25 00:34:30",916222,4.266,222.5,1.07,0.064,15.13,105.6533,13.74,14.67,58.88,0,110.3,13.39,14.54,184.5
"2009-05-25 00:35:00",916223,4.386,222.7,1.617,0.099,15.19,105.6664,13.78,14.69,58.69,0,110.3,13.39,14.58,184.7
"2009-05-25 00:35:30",916224,4.26,220.6,0.359,0.065,15.17,105.6656,13.78,14.73,58.41,0,110.3,13.39,14.58,182.6
"2009-05-25 00:36:00",916225,4.182,219,1.242,0.096,15.15,105.6906,13.84,14.75,58.16,0,110.3,13.39,14.64,181.0
"2009-05-25 00:36:30",916226,4.24,216.9,0.681,0.079,15.37,105.693,13.85,14.79,57.97,0,110.3,13.39,14.65,178.9
"2009-05-25 00:37:00",916227,4.242,216.9,0.763,0.044,15.33,105.7116,13.89,14.82,57.77,0,110.3,13.39,14.69,178.9
"2009-05-25 00:37:30",916228,4.451,215.6,1.291,0.103,15.28,105.7194,13.91,14.87,57.58,0,110.3,13.39,14.71,177.6
"2009-05-25 00:38:00",916229,4.45,215,0.879,0.052,15.18,105.7279,13.94,14.88,57.3,0,110.3,13.39,14.74,177.0
"2009-05-25 00:38:30",916230,4.412,214.4,0.7,0.112,15.12,105.7533,14,14.91,57.13,0,110.3,13.39,14.80,176.4
"2009-05-25 00:39:00",916231,4.359,213,0.951,0.079,14.99,105.7558,14.01,14.94,56.96,0,110.3,13.39,14.81,175.0
"2009-05-25 00:39:30",916232,4.331,211.9,1.167,0.099,15.06,105.7843,14.08,14.99,56.76,0,110.3,13.39,14.88,173.9
"2009-05-25 00:40:00",916233,4.215,210.7,0.747,0.106,15.14,105.7913,14.1,15.03,56.55,0,110.4,13.39,14.90,172.7
"2009-05-25 00:40:30",916234,4.322,210,1.3,0.129,15.08,105.8184,14.17,15.04,56.33,0,110.4,13.39,14.97,172.0
"2009-05-25 00:41:00",916235,4.254,210.4,1.775,0.103,14.97,105.824,14.18,15.09,56.12,0,110.4,13.39,14.98,172.4
"2009-05-25 00:41:30",916236,4.235,212.2,1.095,0.101,15,105.8525,14.26,15.11,55.93,0,110.4,13.39,15.06,174.2
"2009-05-25 00:42:00",916237,4.195,213.1,0.746,0.103,15.02,105.8556,14.26,15.16,55.8,0,110.4,13.39,15.06,175.1
"2009-05-25 00:42:30",916238,3.995,211.6,0.818,0.085,15.07,105.8835,14.33,15.19,55.7,0,110.4,13.39,15.14,173.6
"2009-05-25 00:43:00",916239,4.091,212.2,0.69,0.083,15.1,105.8883,14.35,15.22,55.53,0,110.4,13.39,15.15,174.2
"2009-05-25 00:43:30",916240,3.959,210.8,1.471,0.089,15.03,105.9106,14.4,15.26,55.34,0,110.4,13.39,15.21,172.8
"2009-05-25 00:44:00",916241,3.712,206.1,1.992,0.099,14.71,105.9081,14.4,15.3,55.22,0,110.4,13.39,15.20,168.1
"2009-05-25 00:44:30",916242,3.746,203.6,1.22,0.111,14.73,105.922,14.43,15.33,55.23,0,110.4,13.39,15.24,165.6
"2009-05-25 00:45:00",916243,3.792,205.6,1.327,0.072,14.74,105.9324,14.46,15.39,55.33,0,110.4,13.39,15.26,167.6
"2009-05-25 00:45:30",916244,3.934,204.5,0.945,0.089,14.93,105.9461,14.49,15.41,55.29,0,110.4,13.39,15.30,166.5
"2009-05-25 00:46:00",916245,3.839,207.7,1.489,0.035,14.98,105.9603,14.53,15.43,55.13,0,110.4,13.38,15.33,169.7
"2009-05-25 00:46:30",916246,4.07,213.6,0.933,0.204,15.14,105.9601,14.53,15.47,54.77,0,110.4,13.38,15.33,175.6
"2009-05-25 00:47:00",916247,4.513,217.5,0.886,0.081,15.4,105.9842,14.59,15.5,54.37,0,110.4,13.38,15.40,179.5
"2009-05-25 00:47:30",916248,4.605,216.5,0.901,0.06,15.52,105.9884,14.6,15.54,53.94,0,110.4,13.38,15.41,178.5
"2009-05-25 00:48:00",916249,4.688,215.6,0.974,0.05,15.59,106.005,14.65,15.58,53.7,0,110.4,13.38,15.45,177.6
"2009-05-25 00:48:30",916250,4.716,216.6,0.858,0.064,15.59,106.0216,14.69,15.61,53.46,0,110.4,13.38,15.49,178.6
"2009-05-25 00:49:00",916251,4.564,216.3,0.984,0.061,15.57,106.0247,14.7,15.65,53.28,0,110.4,13.38,15.50,178.3
"2009-05-25 00:49:30",916252,4.422,216.3,0.894,0.039,15.5,106.0518,14.77,15.67,53.27,0,110.4,13.37,15.57,178.3
"2009-05-25 00:50:00",916253,4.284,216.7,1.176,0.087,15.39,106.0555,14.77,15.68,53.36,0,110.4,13.37,15.58,178.7
"2009-05-25 00:50:30",916254,4.202,214.8,0.651,0.034,15.34,106.0589,14.78,15.72,53.38,0,110.4,13.37,15.59,176.8
"2009-05-25 00:51:00",916255,4.284,214.6,0.76,0.066,15.33,106.0854,14.85,15.74,53.32,0,110.4,13.37,15.66,176.6
"2009-05-25 00:51:30",916256,4.31,212.2,1.635,0.072,15.28,106.0893,14.86,15.79,53.22,0,110.4,13.37,15.67,174.2
"2009-05-25 00:52:00",916257,4.364,209.3,1.661,0.12,15.32,106.0893,14.86,15.8,53.08,0,110.4,13.37,15.67,171.3
"2009-05-25 00:52:30",916258,4.715,207.9,0.77,0.146,15.36,106.0947,14.88,15.83,52.98,0,110.4,13.36,15.68,169.9
"2009-05-25 00:53:00",916259,5.131,206.8,0.74,0.129,15.38,106.1164,14.93,15.85,53.04,0,110.4,13.37,15.74,168.8
"2009-05-25 00:53:30",916260,5.152,206.4,1.228,0.146,15.4,106.1231,14.95,15.86,53.27,0,110.4,13.37,15.75,168.4
"2009-05-25 00:54:00",916261,4.993,207.9,1.001,0.13,15.36,106.1231,14.95,15.89,53.37,0,110.4,13.37,15.75,169.9
"2009-05-25 00:54:30",916262,4.686,209.2,0.827,0.1,15.52,106.1234,14.95,15.91,53.22,0,110.4,13.37,15.75,171.2
"2009-05-25 00:55:00",916263,4.514,208.5,0.889,0.1,15.57,106.1313,14.97,15.93,52.95,0,110.4,13.38,15.77,170.5
"2009-05-25 00:55:30",916264,4.232,209.8,0.865,0.084,15.62,106.1355,14.98,15.93,52.7,0,110.4,13.38,15.78,171.8
"2009-05-25 00:56:00",916265,4.054,213.3,1.047,0.067,15.71,106.1429,15,15.94,52.39,0,110.4,13.37,15.80,175.3
"2009-05-25 00:56:30",916266,4.098,214.5,0.906,0.039,15.67,106.1491,15.01,15.95,52.04,0,110.4,13.38,15.82,176.5
"2009-05-25 00:57:00",916267,4.04,215.5,1.057,0.042,15.91,106.1553,15.03,15.96,51.85,0,110.5,13.37,15.84,177.5
"2009-05-25 00:57:30",916268,3.946,214.4,0.755,0.038,15.93,106.1567,15.03,15.97,51.69,0,110.5,13.37,15.84,176.4
"2009-05-25 00:58:00",916269,3.881,214.4,1.347,0.082,15.94,106.157,15.03,15.98,51.6,0,110.5,13.37,15.84,176.4
"2009-05-25 00:58:30",916270,3.804,213.9,1.114,0.032,15.89,106.157,15.03,15.98,51.5,0,110.5,13.37,15.84,175.9
"2009-05-25 00:59:00",916271,3.781,213.5,1.177,0.048,15.85,106.1567,15.03,15.98,51.44,0,110.5,13.37,15.84,175.5
"2009-05-25 00:59:30",916272,3.788,213.6,0.899,0.051,15.84,106.157,15.03,15.99,51.35,0,110.5,13.37,15.84,175.6
"2009-05-25 01:00:00",916273,3.739,214.9,0.892,0.066,15.75,106.1558,15.03,16,51.29,0,110.5,13.37,15.84,176.9
"2009-05-25 01:00:30",916274,3.841,215,1.273,0.05,15.96,106.1555,15.03,16.01,51.23,0,110.5,13.37,15.84,177.0
"2009-05-25 01:01:00",916275,3.794,214.6,1.371,0.072,15.9,106.151,15.02,16.02,51.21,0,110.5,13.37,15.82,176.6
"2009-05-25 01:01:30",916276,3.707,213.1,0.32,0.055,15.87,106.1519,15.02,16.01,51.11,0,110.5,13.37,15.83,175.1
"2009-05-25 01:02:00",916277,3.634,211.2,0.887,0.031,15.91,106.1555,15.03,16.02,50.97,0,110.5,13.37,15.84,173.2
"2009-05-25 01:02:30",916278,3.664,208.4,1.949,0.046,15.88,106.1693,15.07,16.03,50.84,0,110.5,13.37,15.87,170.4
"2009-05-25 01:03:00",916279,3.685,203.9,1.277,0.05,15.69,106.1755,15.08,16.03,50.78,0,110.5,13.37,15.89,165.9
"2009-05-25 01:03:30",916280,3.881,203,0.858,0.141,15.59,106.1748,15.08,16.04,50.88,0,110.5,13.37,15.89,165.0
"2009-05-25 01:04:00",916281,4.114,203.7,1.791,0.051,15.7,106.1816,15.1,16.05,51.11,0,110.5,13.37,15.90,165.7
"2009-05-25 01:04:30",916282,4.173,202,0.905,0.054,15.66,106.1818,15.1,16.05,51.41,0,110.5,13.37,15.90,164.0
"2009-05-25 01:05:00",916283,4.11,205.2,1.274,0.07,15.6,106.1791,15.09,16.06,51.78,0,110.5,13.36,15.90,167.2
"2009-05-25 01:05:30",916284,3.953,202.3,0.736,0.11,15.72,106.1797,15.09,16.07,51.81,0,110.5,13.36,15.90,164.3
"2009-05-25 01:06:00",916285,3.632,201.3,0.679,0.082,15.9,106.1773,15.09,16.08,51.51,0,110.5,13.36,15.89,163.3
"2009-05-25 01:06:30",916286,3.542,199.3,0.491,0.04,16,106.1788,15.09,16.08,51.23,0,110.5,13.36,15.90,161.3
"2009-05-25 01:07:00",916287,3.701,198.5,1.339,0.116,15.81,106.1761,15.08,16.08,51,0,110.5,13.36,15.89,160.5
"2009-05-25 01:07:30",916288,3.753,199.1,0.804,0.048,15.7,106.1752,15.08,16.09,50.89,0,110.5,13.36,15.89,161.1
"2009-05-25 01:08:00",916289,3.623,199.2,1.434,0.069,15.86,106.1761,15.08,16.08,50.9,0,110.5,13.36,15.89,161.2
"2009-05-25 01:08:30",916290,3.683,198.1,1.369,0.048,15.71,106.1719,15.07,16.08,50.92,0,110.5,13.36,15.88,160.1
"2009-05-25 01:09:00",916291,3.813,199.6,1.679,0.098,15.68,106.1734,15.08,16.1,50.97,0,110.5,13.36,15.88,161.6
"2009-05-25 01:09:30",916292,3.906,200.3,1.038,0.059,15.65,106.174,15.08,16.1,51.2,0,110.5,13.36,15.88,162.3
"2009-05-25 01:10:00",916293,3.865,201.2,0.702,0.047,15.56,106.1716,15.07,16.09,51.43,0,110.5,13.36,15.88,163.2
"2009-05-25 01:10:30",916294,4.189,202.9,1.896,0.17,15.52,106.1713,15.07,16.11,51.64,0,110.5,13.36,15.88,164.9
"2009-05-25 01:11:00",916295,4.492,203,0.968,0.152,15.52,106.1737,15.08,16.12,51.84,0,110.5,13.37,15.88,165.0
"2009-05-25 01:11:30",916296,5.009,205.8,2.099,0.158,15.39,106.171,15.07,16.11,52.04,0,110.5,13.37,15.88,167.8
"2009-05-25 01:12:00",916297,4.712,204.3,1.408,0.188,15.53,106.1683,15.06,16.12,52.29,0,110.5,13.37,15.87,166.3
"2009-05-25 01:12:30",916298,4.55,204.7,1.739,0.364,15.72,106.1698,15.07,16.12,52,0,110.5,13.37,15.87,166.7
"2009-05-25 01:13:00",916299,4.868,206.5,1.163,0.138,15.42,106.1698,15.07,16.11,52.15,0,110.5,13.37,15.87,168.5
"2009-05-25 01:13:30",916300,4.414,205.5,1.337,0.124,15.78,106.1704,15.07,16.11,52.37,0,110.5,13.37,15.87,167.5
"2009-05-25 01:14:00",916301,4.051,202.7,2.08,0.279,15.93,106.1707,15.07,16.09,51.78,0,110.5,13.37,15.87,164.7
"2009-05-25 01:14:30",916302,3.357,193.4,2.41,0.227,16.18,106.1686,15.06,16.09,51.37,0,110.5,13.37,15.87,155.4
"2009-05-25 01:15:00",916303,2.858,189.7,1.32,0.05,16.2,106.1653,15.06,16.09,50.6,0,110.5,13.37,15.86,151.7
"2009-05-25 01:15:30",916304,2.953,188.9,0.797,0.067,16.15,106.1602,15.04,16.07,50.06,0,110.5,13.37,15.85,150.9
"2009-05-25 01:16:00",916305,2.933,188.7,1.435,0.083,16.13,106.1573,15.04,16.06,49.76,0,110.4,13.37,15.84,150.7
"2009-05-25 01:16:30",916306,3.002,188.8,1.123,0.063,16.03,106.1544,15.03,16.05,49.66,0,110.4,13.37,15.83,150.8
"2009-05-25 01:17:00",916307,3.127,191.2,2.153,0.097,15.87,106.1444,15,16.06,49.78,0,110.4,13.37,15.81,153.2
"2009-05-25 01:17:30",916308,3.447,197.4,2.134,0.115,15.87,106.1359,14.98,16.03,50.25,0,110.4,13.37,15.79,159.4
"2009-05-25 01:18:00",916309,3.644,198.1,1.878,0.126,15.73,106.1345,14.98,16.03,50.75,0,110.4,13.37,15.78,160.1
"2009-05-25 01:18:30",916310,3.991,203.8,1.647,0.103,15.46,106.1396,14.99,16.03,51.26,0,110.4,13.37,15.79,165.8
"2009-05-25 01:19:00",916311,4.008,204.5,2.273,0.161,15.61,106.1393,14.99,16.03,51.72,0,110.4,13.37,15.79,166.5
"2009-05-25 01:19:30",916312,3.879,201.1,2.061,0.148,15.76,106.1363,14.98,16.02,51.67,0,110.4,13.37,15.79,163.1
"2009-05-25 01:20:00",916313,4.008,201.4,1.756,0.18,15.7,106.1399,14.99,16.03,51.51,0,110.4,13.37,15.80,163.4
"2009-05-25 01:20:30",916314,4.408,205.5,1.453,0.133,15.48,106.1363,14.98,16.03,51.72,0,110.4,13.37,15.79,167.5
"2009-05-25 01:21:00",916315,4.364,208,0.864,0.109,15.39,106.1396,14.99,16.03,52.08,0,110.4,13.37,15.79,170.0
"2009-05-25 01:21:30",916316,4.474,206.2,0.747,0.104,15.6,106.139,14.99,16.03,52.19,0,110.4,13.36,15.79,168.2
"2009-05-25 01:22:00",916317,4.603,205.5,1.683,0.112,15.57,106.1396,14.99,16.02,52.19,0,110.4,13.36,15.79,167.5
"2009-05-25 01:22:30",916318,4.57,202.7,0.839,0.061,15.7,106.1387,14.99,16.02,52.19,0,110.4,13.36,15.79,164.7
"2009-05-25 01:23:00",916319,4.713,204.1,0.421,0.022,15.5,106.1396,14.99,16.01,52.11,0,110.4,13.36,15.79,166.1
"2009-05-25 01:23:30",916320,4.626,203.7,1.019,0.095,15.67,106.1402,14.99,16.02,52.12,0,110.4,13.36,15.80,165.7
"2009-05-25 01:24:00",916321,4.527,200.9,0.699,0.049,15.73,106.1396,14.99,16.01,52.06,0,110.4,13.36,15.79,162.9
"2009-05-25 01:24:30",916322,4.624,200.9,0.802,0.061,15.58,106.137,14.98,16.01,52,0,110.4,13.36,15.79,162.9
"2009-05-25 01:25:00",916323,4.607,202,0.798,0.086,15.66,106.1318,14.97,16,52.09,0,110.4,13.36,15.77,164.0
"2009-05-25 01:25:30",916324,4.555,201.3,1.527,0.097,15.73,106.1267,14.96,15.99,52.05,0,110.4,13.36,15.76,163.3
"2009-05-25 01:26:00",916325,4.738,204.4,0.695,0.066,15.56,106.1204,14.94,15.97,52.07,0,110.4,13.36,15.75,166.4
"2009-05-25 01:26:30",916326,4.745,203.3,1.125,0.054,15.54,106.1111,14.92,15.98,52.2,0,110.4,13.36,15.72,165.3
"2009-05-25 01:27:00",916327,4.747,201.9,0.349,0.037,15.61,106.1091,14.91,15.97,52.21,0,110.4,13.36,15.72,163.9
"2009-05-25 01:27:30",916328,4.778,203.2,1.141,0.023,15.57,106.1088,14.91,15.96,52.14,0,110.4,13.37,15.72,165.2
"2009-05-25 01:28:00",916329,4.703,206.1,1.225,0.042,15.63,106.1097,14.91,15.96,52.25,0,110.4,13.37,15.72,168.1
"2009-05-25 01:28:30",916330,4.594,208.6,0.972,0.035,15.69,106.1103,14.92,15.95,52.46,0,110.4,13.37,15.72,170.6
"2009-05-25 01:29:00",916331,4.589,209,1.843,0.073,15.7,106.1115,14.92,15.94,52.58,0,110.4,13.37,15.72,171.0
"2009-05-25 01:29:30",916332,4.843,212.6,2.407,0.144,15.4,106.1056,14.9,15.94,52.83,0,110.4,13.37,15.71,174.6
"2009-05-25 01:30:00",916333,5.019,214.2,1.878,0.194,15.31,106.0892,14.86,15.96,53.25,0,110.4,13.37,15.67,176.2
"2009-05-25 01:30:30",916334,6.578,224.8,7.529,1.307,17.03,106.0791,14.84,16.04,53.9,0,110.4,13.33,15.64,186.8
"2009-05-25 01:31:00",916335,8.46,232.4,5.615,1.058,18.87,106.0791,14.84,16.19,54.61,0,110.4,13.33,15.64,194.4
"2009-05-25 01:31:30",916336,8.76,234.4,4.192,1.007,18.68,106.0818,14.84,16.23,54.84,0,110.4,13.33,15.65,196.4
"2009-05-25 01:32:00",916337,7.45,227.2,7.111,1.107,15,106.0725,14.82,15.93,54.64,0,110.4,13.33,15.62,189.2
"2009-05-25 01:32:30",916338,6.85,222,1.375,0.192,12.7,106.047,14.75,15.83,54.61,0,110.4,13.36,15.56,184.0
"2009-05-25 01:33:00",916339,7.3,223.4,1.583,0.231,12.79,106.0477,14.76,15.82,54.66,0,110.4,13.36,15.56,185.4
"2009-05-25 01:33:30",916340,6.923,222.4,2.87,0.258,13.45,106.0297,14.71,15.78,54.79,0,110.4,13.36,15.51,184.4
"2009-05-25 01:34:00",916341,7.504,224.4,2.011,0.169,13.75,106.0142,14.67,15.75,54.7,0,110.4,13.36,15.47,186.4
"2009-05-25 01:34:30",916342,7.75,223,1.389,0.239,14.14,105.9978,14.63,15.71,54.71,0,110.4,13.36,15.43,185.0
"2009-05-25 01:35:00",916343,8.61,227,7.26,1.189,16.29,105.9833,14.59,15.77,54.81,0,110.4,13.33,15.39,189.0
"2009-05-25 01:35:30",916344,7.784,221.6,5.391,1.039,15.41,105.9636,14.54,15.77,54.9,0,110.4,13.33,15.34,183.6
"2009-05-25 01:36:00",916345,9.2,229.8,7.506,1.37,17.82,105.9513,14.51,15.84,55.1,0,110.4,13.33,15.31,191.8
"2009-05-25 01:36:30",916346,9.13,228.8,7.666,1.197,17.85,105.9349,14.47,15.81,55.21,0,110.4,13.33,15.27,190.8
"2009-05-25 01:37:00",916347,7.575,224.5,8.3,1.248,16.15,105.9192,14.43,15.68,55.23,0,110.4,13.33,15.23,186.5
"2009-05-25 01:37:30",916348,6.856,218.3,7.311,1.044,14.01,105.9086,14.4,15.48,55.17,0,110.4,13.32,15.20,180.3
"2009-05-25 01:38:00",916349,6.344,214,1.662,0.177,13.21,105.8863,14.34,15.43,55.28,0,110.4,13.36,15.14,176.0
"2009-05-25 01:38:30",916350,6.599,213.3,1.589,0.236,13.29,105.8849,14.34,15.39,55.34,0,110.4,13.36,15.14,175.3
"2009-05-25 01:39:00",916351,6.805,214.1,1.197,0.258,13.65,105.866,14.29,15.36,55.32,0,110.4,13.36,15.09,176.1
"2009-05-25 01:39:30",916352,6.672,210.3,2.192,0.456,14.14,105.8522,14.25,15.33,55.37,0,110.4,13.36,15.06,172.3
"2009-05-25 01:40:00",916353,6.9,209.5,1.572,0.202,14.41,105.8522,14.25,15.31,55.35,0,110.4,13.36,15.06,171.5
"2009-05-25 01:40:30",916354,6.678,209.8,1.604,0.237,14.74,105.8477,14.24,15.28,55.45,0,110.4,13.37,15.04,171.8
"2009-05-25 01:41:00",916355,7.722,212.4,6.755,1.259,15.78,105.8254,14.19,15.25,55.47,0,110.4,13.33,14.99,174.4
"2009-05-25 01:41:30",916356,7.939,214.5,6.833,1.25,17.08,105.8187,14.17,15.4,55.59,0,110.4,13.33,14.97,176.5
"2009-05-25 01:42:00",916357,6.948,208.4,1.581,0.264,14.77,105.8187,14.17,15.21,55.45,0,110.4,13.37,14.97,170.4
"2009-05-25 01:42:30",916358,7.991,211.4,7.167,1.338,16.53,105.8187,14.17,15.36,55.67,0,110.4,13.33,14.97,173.4
"2009-05-25 01:43:00",916359,9.23,217.6,6.777,1.317,17.53,105.8164,14.16,15.37,55.69,0,110.4,13.33,14.96,179.6
"2009-05-25 01:43:30",916360,8.33,212,5.003,0.95,14.99,105.8082,14.14,15.35,55.65,0,110.4,13.33,14.94,174.0
"2009-05-25 01:44:00",916361,9.44,213.8,6.715,1.298,15.26,105.7905,14.1,15.15,55.43,0,110.5,13.33,14.90,175.8
"2009-05-25 01:44:30",916362,8.61,209.3,0.587,0.076,13.82,105.7848,14.08,15.23,55.5,0,110.4,13.36,14.88,171.3
"2009-05-25 01:45:00",916363,8.49,208.3,0.822,0.109,13.63,105.7848,14.08,15.12,55.38,0,110.4,13.36,14.88,170.3
"2009-05-25 01:45:30",916364,8.49,208.2,0.743,0.128,13.91,105.7848,14.08,15.12,55.4,0,110.4,13.36,14.88,170.2
"2009-05-25 01:46:00",916365,8.55,209.2,1.019,0.119,14.3,105.7848,14.08,15.15,55.44,0,110.4,13.36,14.88,171.2
"2009-05-25 01:46:30",916366,9.86,215,6.821,1.335,16.24,105.7848,14.08,15.19,55.45,0,110.4,13.33,14.88,177.0
"2009-05-25 01:47:00",916367,9.29,211.2,3.566,0.612,14.85,105.7837,14.08,15.18,55.42,0,110.4,13.35,14.88,173.2
"2009-05-25 01:47:30",916368,9.92,210.7,0.804,0.16,14.32,105.7772,14.06,15.08,55.25,0,110.4,13.37,14.86,172.7